Regional Weather Roundup
Issued by NWS

Home | Current Version | Previous Version | Text Only | Print | Product List | Glossary Off
Versions: 1 2 3 4 5 6 7 8 9 10 11 12 13 14 15 16 17 18 19 20 21 22 23 24 25 26 27 28 29 30 31 32 33 34 35 36 37 38 39 40 41 42 43 44 45 46 47 48 49 50

000
ASUS45 KBOI 012010
RWRID

IDAHO REGIONAL WEATHER ROUNDUP
NATIONAL WEATHER SERVICE BOISE ID
200 PM MDT WED JUL 01 2015

NOTE: "FAIR" INDICATES FEW OR NO CLOUDS BELOW 12000 FEET
WITH NO SIGNIFICANT WEATHER AND/OR OBSTRUCTIONS TO VISIBILITY

IDZ012-014-012100-
SOUTHWEST IDAHO


CITY           SKY/WX    TMP DP  RH WIND       PRES   REMARKS
BOISE          SUNNY     96  48  19 NW8G18    29.99F HX  92
CALDWELL       SUNNY     95  48  20 NW5       29.99F HX  91
MOUNTAIN HOME  MOSUNNY   98  44  15 NW8       29.99F HX  94
$$

IDZ016-017-012100-
SOUTHCENTRAL IDAHO


CITY           SKY/WX    TMP DP  RH WIND       PRES   REMARKS
BURLEY         SUNNY     90  55  30 VRB6      30.07F
JEROME         NOT AVBL
TWIN FALLS     MOSUNNY   95  50  21 W12       30.06F HX  92
$$

IDZ019>023-012100-
SOUTHEAST IDAHO


CITY           SKY/WX    TMP DP  RH WIND       PRES   REMARKS
IDAHO FALLS    MOSUNNY   87  53  31 S3        30.11F
POCATELLO      SUNNY     91  52  26 NW5       30.10F
REXBURG        SUNNY     85  57  38 SW9       30.12F
$$

IDZ006-010-011-018-031-032-012100-
CENTRAL IDAHO MOUNTAINS


CITY           SKY/WX    TMP DP  RH WIND       PRES   REMARKS
MCCALL         SUNNY     87  34  15 W8        30.15S
HAILEY         MOSUNNY   91  43  18 W12       30.14F
STANLEY          N/A     86  33  15 NW9G23    30.25F
SALMON         SUNNY     88  52  29 N8        30.01F
CHALLIS        SUNNY     91  35  13 SE7       30.09F
$$

IDZ002-004-006-007-026-012100-
NORTHERN IDAHO


CITY           SKY/WX    TMP DP  RH WIND       PRES   REMARKS
LEWISTON       SUNNY     95  48  20 CALM      29.96F HX  91
LOWELL           N/A     98  46  17 VRB3      29.94F HX  94
COEUR D`ALENE  SUNNY     91  50  24 W8        30.00F
MULLAN PASS    MOSUNNY   71  42  35 NW5       30.25S
$$



USA.gov is the U.S. government's official web portal to all federal, state and local government web resources and services.